Hourly Data Report for April 14, 2004

SHERBROOKE A
QUEBEC

45°26'00.000" N
71°41'00.000" W
241.40 m
7028124
71610
YSC

Download Data

Hourly Data (April 2004)
Hourly Data Report for April 14, 2004
TIME
LST
Temp Definition
°C
Dew Point Definition
°C
Rel Hum Definition
%
Precip. Amount Definition
mm

Wind Dir Definition
10's deg

Wind Spd Definition
km/h
Visibility Definition
km
Stn Press Definition
kPa
Hmdx Definition


Wind Chill Definition


Weather Definition


00:00 5.1 4.5 96     0 4.0 97.39     Rain
01:00 4.9 4.4 97   24 6 4.8 97.32     Rain
02:00 5.0 4.5 97   27 4 2.6 97.32     Rain
03:00 4.7 4.2 97   10 4 2.7 97.35     Rain
04:00 4.6 4.2 97     0 1.9 97.38      
05:00 4.7 4.3 97     0 1.4 97.49     Drizzle
06:00 4.7 4.2 97   26 6 1.4 97.56      
07:00 4.4 3.8 96   26 15 4.8 97.81     Rain, Fog
08:00 3.0 2.3 95   26 11 16.1 97.91     Cloudy
09:00 3.3 2.6 95   30 7 12.9 97.86     Cloudy
10:00 3.4 2.5 94   30 6 16.1 97.92     Cloudy
11:00 3.6 2.8 94   28 6 3.2 98.03     Fog
12:00 3.9 3.1 95   31 9 3.2 98.10     Drizzle, Fog
13:00 4.0 3.1 94   30 11 9.7 98.06     Fog
14:00 4.0 2.9 93   33 7 12.9 98.07     Cloudy
15:00 3.9 2.4 90   32 9 9.7 98.11     Rain, Fog
16:00 4.1 2.9 92   33 6 16.1 98.16     Drizzle
17:00 3.7 2.6 93   32 7 9.7 98.19     Drizzle
18:00 3.6 1.8 88     0 15.0 98.30      
19:00 3.4 1.8 89   31 9 15.0 98.30      
20:00 3.3 0.6 82   2 4 15.0 98.35      
21:00 2.8 0.4 84   33 4 15.0 98.41      
22:00 2.7 0.0 82   33 4 15.0 98.42      
23:00 2.7 -0.1 82   33 7 15.0 98.40      

Notes on Data Quality.

Legend

  • E = Estimated
  • M = Missing
  • NA = Not Available*
  • [empty] = Indicates an unobserved value
Date modified: